Simultaneous Nadir Overpasses (SNOs) Predictions

Prediction of SNOs between AQUA and GOES-15 Satellite Orbit:

Table of predicted SNOs for the next 14.0 days since TLE Epoch: 9/6/2019
Index Date Time (AQUA) AQUA Lat,Lon GOES-15 Lat,Lon Distance(km) Time Diff (sec)
1 09/07/2019 09:54:40 -0.35,-124.86 0.37,-128.29 389.56 80
2 09/07/2019 22:16:05 -0.72,-130.06 -0.36,-128.25 205.14 80
3 09/09/2019 22:03:53 -0.11,-127.10 -0.36,-128.21 126.65 80
4 09/10/2019 10:25:08 1.21,-132.25 0.35,-128.23 457.11 80
5 09/11/2019 21:51:41 0.50,-124.13 -0.35,-128.17 458.32 80
6 09/12/2019 10:12:56 0.60,-129.29 0.35,-128.19 125.63 80
7 09/14/2019 10:00:44 -0.02,-126.33 0.35,-128.14 205.75 80
8 09/14/2019 22:22:09 -1.05,-131.53 -0.34,-128.09 390.29 80
9 09/16/2019 22:09:57 -0.43,-128.57 -0.34,-128.04 59.21 80
10 09/18/2019 21:57:45 0.20,-125.61 -0.34,-127.99 271.35 80
11 09/19/2019 10:18:59 0.90,-130.76 0.33,-128.02 312.14 80




NCC Satellite Simultaneous Nadir Overpasses (SNOs) Prediction Service
